This is the latest recevied weather packets stored in our database for station/object W2DRT. If no packets are shown the sender has not sent any weather packets the latest 10 day(s).
| Time | Temp. | Humidity | Pressure | Rain* | Wind** | Luminosity | Snow |
|---|---|---|---|---|---|---|---|
| 1777214314 | 6.67° C | 83% | 1020.4 hPa | - | - | - | - |
| 1777212513 | 7.22° C | 83% | 1020.1 hPa | - | - | - | - |
| 1777210706 | 6.67° C | 85% | 1020.1 hPa | - | - | - | - |
| 1777210104 | 6.67° C | 84% | 1020.1 hPa | - | - | - | - |
| 1777209501 | 6.67° C | 83% | 1019.7 hPa | - | - | - | - |
| 1777208299 | 6.67° C | 84% | 1020.1 hPa | - | - | - | - |
| 1777206487 | 6.11° C | 85% | 1019.7 hPa | - | - | - | - |
| 1777205885 | 6.11° C | 85% | 1019.4 hPa | - | - | - | - |
| 1777205283 | 6.11° C | 85% | 1019.4 hPa | - | - | - | - |
| 1777204680 | 6.11° C | 86% | 1019.4 hPa | - | - | - | - |
| 1777204078 | 6.11° C | 86% | 1019.4 hPa | - | - | - | - |
| 1777203473 | 5.56° C | 87% | 1019 hPa | - | - | - | - |
| 1777202873 | 5.56° C | 88% | 1019 hPa | - | - | - | - |
| 1777201068 | 5.56° C | 89% | 1018.4 hPa | - | - | - | - |
| 1777200465 | 5.56° C | 89% | 1018.4 hPa | - | - | - | - |
| 1777199864 | 5.56° C | 90% | 1018.4 hPa | - | - | - | - |
| 1777199264 | 5° C | 91% | 1018 hPa | - | - | - | - |
| 1777198661 | 5° C | 91% | 1018 hPa | - | - | - | - |
| 1777197451 | 5° C | 91% | 1017.7 hPa | - | - | - | - |
| 1777196849 | 5° C | 91% | 1018 hPa | - | - | - | - |
| 1777196249 | 5.56° C | 91% | 1017.7 hPa | - | - | - | - |
| 1777195646 | 5.56° C | 91% | 1017.7 hPa | - | - | - | - |
| 1777195044 | 5.56° C | 91% | 1017.7 hPa | - | - | - | - |
| 1777194442 | 5.56° C | 91% | 1017.3 hPa | - | - | - | - |
| 1777193841 | 5.56° C | 91% | 1017.7 hPa | - | - | - | - |
* Rain since midnight (hover to see other rain measurements)
** Current wind speed in m/s (hover to see current wind gust speed)